Regional Weather Roundup
Issued by NWS

Home | Current Version | Previous Version | Text Only | Print | Product List | Glossary On
Versions: 1 2 3 4 5 6 7 8 9 10 11 12 13 14 15 16 17 18 19 20 21 22 23 24 25 26 27 28 29 30 31 32 33 34 35 36 37 38 39 40 41 42 43 44 45 46 47 48 49 50
000
ASUS43 KDTX 270610
RWRMI
MICHIGAN HOURLY REGIONAL WEATHER ROUNDUP
NATIONAL WEATHER SERVICE DETROIT/PONTIAC MI
200 AM EDT SAT MAY 27 2017

NOTE: "FAIR" INDICATES FEW OR NO CLOUDS BELOW 12,000 FEET WITH NO
SIGNIFICANT WEATHER AND/OR OBSTRUCTION TO VISIBILITY.

MIZ047>049-052>055-059>063-066>070-074>076-081>083-270700-
SOUTHEAST LOWER MICHIGAN

CITY           SKY/WX    TMP DP  RH WIND       PRES   REMARKS
ADRIAN         CLOUDY    59  58  96 E5        29.88F
6HR MIN TEMP:  59; 6HR MAX TEMP:  68; 6HR PCP:  0.18;

ALMA           CLOUDY    57  56  96 CALM      29.88R
ANN ARBOR      LGT RAIN  60  56  86 CALM      29.87F
BAD AXE        CLOUDY    53  52  97 CALM      29.90S
6HR MIN TEMP:  52; 6HR MAX TEMP:  63;

CARO           MOCLDY    54  54 100 CALM      29.89R FOG
DETROIT CITY   CLOUDY    59  57  93 S3        29.89R
6HR MIN TEMP:  59; 6HR MAX TEMP:  67;

DETROIT        LGT RAIN  61  56  83 CALM      29.89S
6HR MIN TEMP:  60; 6HR MAX TEMP:  68; 6HR PCP: TRACE;

FLINT          CLOUDY    58  55  90 CALM      29.88S
6HR MIN TEMP:  58; 6HR MAX TEMP:  66;

GROSSE ILE     CLOUDY    60  56  86 CALM      29.88S
6HR MIN TEMP:  57; 6HR MAX TEMP:  62;

HILLSDALE      CLOUDY    59  55  88 CALM      29.86F
HOWELL         MOCLDY    58  53  83 CALM      29.87F
6HR MIN TEMP:  58; 6HR MAX TEMP:  64;


CITY           SKY/WX    TMP DP  RH WIND       PRES   REMARKS
JACKSON        CLOUDY    60  56  86 SE6       29.87F
6HR MIN TEMP:  59; 6HR MAX TEMP:  64; 6HR PCP:  0.05;

LAMBERTVILLE   RAIN      59  58  94 E3        29.87F
6HR MIN TEMP:  59; 6HR MAX TEMP:  69;

LANSING        CLOUDY    62  52  69 SE5       29.86F
6HR MIN TEMP:  62; 6HR MAX TEMP:  67;

LAPEER         FAIR      52  51  97 E3        29.89S FOG
6HR MIN TEMP:  52; 6HR MAX TEMP:  65;

MASON          CLOUDY    61  55  79 S3        29.87F
MONROE         LGT RAIN  59  58  97 CALM      29.87F
6HR MIN TEMP:  57; 6HR MAX TEMP:  65; 6HR PCP:  0.04;

MT. CLEMENS    CLOUDY    57  57 100 NE5       29.87F
6HR MIN TEMP:  56; 6HR MAX TEMP:  64;

PONTIAC        MOCLDY    59  55  87 CALM      29.87F
6HR MIN TEMP:  57; 6HR MAX TEMP:  65;

PORT HOPE        N/A     51  49  92 CALM      29.88R
6HR MIN TEMP:  49; 6HR MAX TEMP:  57;

PORT HURON     PTCLDY    50  48  93 CALM      29.90S FOG
TRI CITIES     CLOUDY    57  55  93 CALM      29.88S
6HR MIN TEMP:  57; 6HR MAX TEMP:  68;

MIDLAND        FAIR      54  53  96 CALM      29.87S
6HR MIN TEMP:  53; 6HR MAX TEMP:  68;

TROY           MOCLDY    61  54  79 CALM      29.90S
SAGINAW HB     CLOUDY    55  52  88 CALM      29.87S
$$
MIZ043>046-050>051-056>058-064>065-071>073-077>080-270700-
SOUTHWEST LOWER MICHIGAN

CITY           SKY/WX    TMP DP  RH WIND       PRES   REMARKS
BATTLE CREEK   CLOUDY    61  58  90 E5        29.87S
6HR MIN TEMP:  61; 6HR MAX TEMP:  67; 6HR PCP:  0.02;

BENTON HARBOR  CLOUDY    59  56  89 CALM      29.86R
6HR MIN TEMP:  57; 6HR MAX TEMP:  60; 6HR PCP:  0.41;

BIG RAPIDS     CLOUDY    55  51  85 CALM      29.88S
6HR MIN TEMP:  55; 6HR MAX TEMP:  67;

COLDWATER      DRIZZLE   59  59 100 CALM      29.86S
6HR MIN TEMP:  58; 6HR MAX TEMP:  67;

FREMONT        FAIR      53  51  92 CALM      29.88S
HOLLAND        PTCLDY    56  54  93 N5        29.88R
6HR MIN TEMP:  55; 6HR MAX TEMP:  60; 6HR PCP:  0.04;

GRAND RAPIDS   PTCLDY    59  59 100 N5        29.87R
6HR MIN TEMP:  59; 6HR MAX TEMP:  68; 6HR PCP:  0.03;

IONIA          FAIR      58  56  94 CALM      29.86S
6HR MIN TEMP:  58; 6HR MAX TEMP:  67;

KALAMAZOO      CLOUDY    61  57  87 CALM      29.86S
6HR MIN TEMP:  60; 6HR MAX TEMP:  68; 6HR PCP:  0.06;

LUDINGTON      CLEAR     49  49 100 CALM      29.89S FOG
6HR MIN TEMP:  49; 6HR MAX TEMP:  54;

MARSHALL       MOCLDY    59  58  98 CALM      29.86S
6HR MIN TEMP:  59; 6HR MAX TEMP:  66; 6HR PCP:  0.02;

MOUNT PLEASANT CLOUDY    55  54  96 CALM      29.87R
6HR MIN TEMP:  55; 6HR MAX TEMP:  67;

MUSKEGON       CLOUDY    55  53  93 NE3       29.88R
6HR MIN TEMP:  54; 6HR MAX TEMP:  59; 6HR PCP:  0.02;

SOUTH HAVEN    CLOUDY    57  57  98 CALM      29.86R
$$
MIZ016>042-270700-
NORTHERN LOWER MICHIGAN

CITY           SKY/WX    TMP DP  RH WIND       PRES   REMARKS
ALPENA         CLEAR     47  46  97 CALM      29.90R
6HR MIN TEMP:  47; 6HR MAX TEMP:  63;

BEAVER ISLAND  CLOUDY    51  50  95 CALM      29.88F
6HR MIN TEMP:  50; 6HR MAX TEMP:  59;

BELLAIRE       CLOUDY    51  50  95 CALM      29.88F
6HR MIN TEMP:  50; 6HR MAX TEMP:  64;

CADILLAC       CLOUDY    49  48  97 CALM      29.89R
CHARLEVOIX     CLOUDY    50  49  97 CALM      29.91F
6HR MIN TEMP:  50; 6HR MAX TEMP:  59;

FRANKFORT      CLEAR     46  43  89 CALM      29.89R
GAYLORD        MOCLDY    56  51  84 CALM      29.88F
6HR MIN TEMP:  56; 6HR MAX TEMP:  70;

GRAYLING       PTCLDY    50  49  97 CALM      29.89S
6HR MIN TEMP:  49; 6HR MAX TEMP:  68;

HARBOR SPRINGS MOCLDY    50  50 100 CALM      29.88F
HOUGHTON LAKE  PTCLDY    51  50  96 CALM      29.89S
6HR MIN TEMP:  51; 6HR MAX TEMP:  68;

MANISTEE       CLEAR     47  46  97 CALM      29.89R
OSCODA         CLEAR     46  45  94 CALM      29.88F
6HR MIN TEMP:  46; 6HR MAX TEMP:  60;

PELLSTON       CLOUDY    50  47  89 CALM      29.89S
6HR MIN TEMP:  48; 6HR MAX TEMP:  67;

ROGERS CITY    MOCLDY    51  49  93 CALM      29.89S
TRAVERSE CITY  CLOUDY    52  49  89 CALM      29.87S
6HR MIN TEMP:  51; 6HR MAX TEMP:  58;

$$
MIZ007>008-015-270700-
EASTERN UPPER MICHIGAN

CITY           SKY/WX    TMP DP  RH WIND       PRES   REMARKS
KINROSS        CLEAR     54  50  86 CALM      29.88S
6HR MIN TEMP:  53; 6HR MAX TEMP:  67;

MACKINAC ISLAN CLEAR     52  51  96 SW3       29.88S
6HR MIN TEMP:  51; 6HR MAX TEMP:  60;

NEWBERRY       CLOUDY    53  52  96 S5        29.87F
6HR MIN TEMP:  52; 6HR MAX TEMP:  66;

S. S. MARIE    MOCLDY    56  50  80 CALM      29.87S
6HR MIN TEMP:  54; 6HR MAX TEMP:  66;

MUNISING         N/A     56  56 100 SW3       29.84F
6HR MIN TEMP:  54; 6HR MAX TEMP:  68; 6HR PCP:  0.10;

$$
MIZ004>006-011>014-085-270700-
CENTRAL UPPER MICHIGAN

CITY           SKY/WX    TMP DP  RH WIND       PRES   REMARKS
MANISTIQUE     CLOUDY    50  46  87 SE3       29.86S
ESCANABA       CLOUDY    53  52  96 W5        29.88R
6HR MIN TEMP:  52; 6HR MAX TEMP:  60; 6HR PCP: TRACE;

MENOMINEE      CLOUDY    56  52  86 CALM      29.87R
6HR MIN TEMP:  54; 6HR MAX TEMP:  64;

SAWYER-GWINN   CLOUDY    56  54  95 S6        29.86F
6HR MIN TEMP:  55; 6HR MAX TEMP:  65; 6HR PCP:  0.12;

$$
MIZ001>003-009>011-084-270700-
WESTERN UPPER MICHIGAN

CITY           SKY/WX    TMP DP  RH WIND       PRES   REMARKS
IRON MOUNTAIN  MOCLDY    54  51  90 CALM      29.85S
6HR MIN TEMP:  54; 6HR MAX TEMP:  65; 6HR PCP: TRACE;

HOUGHTON       MOCLDY    53  48  83 SE5       29.80F
6HR MIN TEMP:  53; 6HR MAX TEMP:  57; 6HR PCP: TRACE;

COPPER HARBOR    N/A     59  53  80 SW7       29.79F
6HR MIN TEMP:  52; 6HR MAX TEMP:  59;

IRONWOOD       PTCLDY    60  55  83 S6        29.81S
6HR MIN TEMP:  55; 6HR MAX TEMP:  69;

$$

ABBREVIATIONS USED IN REMARKS
   TC - TEMPERATURE IN CELSIUS
  WCI - WIND CHILL INDEX
   HX - HEAT INDEX
  VSB - VISIBILITY





USA.gov is the U.S. government's official web portal to all federal, state and local government web resources and services.